This is the latest recevied weather packets stored in our database for station/object WX6YYZ. If no packets are shown the sender has not sent any weather packets the latest 10 day(s).
| Time | Temp. | Humidity | Pressure | Rain* | Wind** | Luminosity | Snow |
|---|---|---|---|---|---|---|---|
| 1777738769 | 14.44° C | 94% | 1015.2 hPa | 0 mm | - | - | - |
| 1777736235 | 13.89° C | 94% | 1015.2 hPa | 0 mm | - | - | - |
| 1777735903 | 13.89° C | 94% | 1015.6 hPa | 0 mm | - | - | - |
| 1777734304 | 13.89° C | 94% | 1015.2 hPa | 0 mm | - | - | - |
| 1777732498 | 13.33° C | 94% | 1015.2 hPa | 0 mm | - | - | - |
| 1777732197 | 13.33° C | 94% | 1015.2 hPa | 0 mm | - | - | - |
| 1777731865 | 13.33° C | 94% | 1015.2 hPa | 0 mm | - | - | - |
| 1777731263 | 13.33° C | 94% | 1015.2 hPa | 0 mm | - | - | - |
| 1777726653 | 12.78° C | 94% | 1013.9 hPa | 0 mm | - | - | - |
| 1777726352 | 12.78° C | 94% | 1013.9 hPa | 0 mm | - | - | - |
| 1777724547 | 12.78° C | 93% | 1013.5 hPa | 0 mm | - | - | - |
| 1777722728 | 13.33° C | 93% | 1013.5 hPa | 0 mm | - | - | - |
| 1777720256 | 13.33° C | 92% | 1013.2 hPa | 0 mm | - | - | - |
| 1777719956 | 13.33° C | 92% | 1013.2 hPa | 0 mm | - | - | - |
| 1777719053 | 13.33° C | 92% | 1013.2 hPa | 0 mm | - | - | - |
| 1777717848 | 13.33° C | 92% | 1013.2 hPa | 0 mm | - | - | - |
| 1777715981 | 13.89° C | 91% | 1013.2 hPa | 0 mm | - | - | - |
| 1777713874 | 13.89° C | 91% | 1013.2 hPa | 0 mm | - | - | - |
| 1777712369 | 13.89° C | 90% | 1013.5 hPa | 0 mm | - | - | - |
| 1777711466 | 13.89° C | 90% | 1013.9 hPa | 0 mm | - | - | - |
| 1777711102 | 13.89° C | 90% | 1013.9 hPa | 0 mm | - | - | - |
| 1777709265 | 14.44° C | 89% | 1013.9 hPa | 0 mm | - | - | - |
| 1777708663 | 14.44° C | 88% | 1014.2 hPa | 0 mm | - | - | - |
| 1777708362 | 14.44° C | 88% | 1014.2 hPa | 0 mm | - | - | - |
| 1777706518 | 15° C | 88% | 1014.2 hPa | 0 mm | - | - | - |
* Rain latest hour (hover to see other rain measurements)
** Current wind speed in m/s (hover to see current wind gust speed)